TimeEDT,TemperatureF,Dew PointF,Humidity,Sea Level PressureIn,VisibilityMPH,Wind Direction,Wind SpeedMPH,Gust SpeedMPH,PrecipitationIn,Events,Conditions,WindDirDegrees,DateUTC
12:51 AM,48.0,43.0,83,29.79,6.0,West,16.1,23.0,0.00,Rain,Heavy Rain,280,2011-10-15 04:51:00
1:51 AM,48.0,39.9,74,29.77,10.0,SW,9.2,-,0.02,,Mostly Cloudy,220,2011-10-15 05:51:00
2:51 AM,48.9,41.0,74,29.78,10.0,Variable,5.8,-,N/A,,Mostly Cloudy,0,2011-10-15 06:51:00
3:51 AM,48.9,39.0,69,29.78,10.0,WSW,10.4,18.4,N/A,,Clear,250,2011-10-15 07:51:00
4:51 AM,48.9,37.9,66,29.79,10.0,WSW,18.4,25.3,N/A,,Partly Cloudy,250,2011-10-15 08:51:00
5:51 AM,48.9,37.9,66,29.82,10.0,West,10.4,19.6,N/A,,Mostly Cloudy,260,2011-10-15 09:51:00
6:51 AM,48.0,37.9,68,29.83,10.0,WSW,11.5,20.7,N/A,,Partly Cloudy,240,2011-10-15 10:51:00
7:51 AM,48.0,37.9,68,29.84,10.0,WSW,10.4,21.9,N/A,,Clear,240,2011-10-15 11:51:00
8:51 AM,50.0,37.4,62,29.82,10.0,SW,13.8,23.0,N/A,,Clear,230,2011-10-15 12:51:00
9:51 AM,52.0,37.0,57,29.86,10.0,WSW,13.8,29.9,N/A,,Clear,240,2011-10-15 13:51:00
10:51 AM,52.0,36.0,54,29.87,10.0,WSW,17.3,35.7,N/A,,Partly Cloudy,250,2011-10-15 14:51:00
11:51 AM,55.0,36.0,49,29.86,10.0,WSW,18.4,29.9,N/A,,Clear,250,2011-10-15 15:51:00
12:51 PM,57.9,34.0,41,29.86,10.0,WSW,20.7,38.0,N/A,,Scattered Clouds,250,2011-10-15 16:51:00
1:51 PM,59.0,32.0,36,29.84,10.0,WSW,11.5,29.9,N/A,,Partly Cloudy,250,2011-10-15 17:51:00
2:51 PM,60.1,30.0,32,29.84,10.0,West,19.6,32.2,N/A,,Clear,260,2011-10-15 18:51:00
3:51 PM,60.8,28.4,29,29.84,10.0,West,18.4,31.1,N/A,,Clear,260,2011-10-15 19:51:00
4:51 PM,59.0,28.9,32,29.86,10.0,WSW,13.8,29.9,N/A,,Clear,250,2011-10-15 20:51:00
5:51 PM,57.9,28.9,33,29.87,10.0,West,24.2,35.7,N/A,,Clear,260,2011-10-15 21:51:00
6:51 PM,55.9,30.0,37,29.90,10.0,West,15.0,24.2,N/A,,Clear,270,2011-10-15 22:51:00
7:51 PM,55.0,30.0,38,29.93,10.0,West,13.8,21.9,N/A,,Clear,260,2011-10-15 23:51:00
8:51 PM,54.0,30.9,41,29.95,10.0,WSW,11.5,20.7,N/A,,Clear,240,2011-10-16 00:51:00
9:51 PM,54.0,32.0,43,29.98,10.0,WSW,16.1,26.5,N/A,,Clear,250,2011-10-16 01:51:00
10:51 PM,53.1,32.0,45,29.99,10.0,WSW,17.3,26.5,N/A,,Clear,250,2011-10-16 02:51:00
11:51 PM,53.1,33.1,47,30.01,10.0,West,16.1,20.7,N/A,,Clear,260,2011-10-16 03:51:00